| time (UTC) | temp F | wind direction | speed MPH | gust MPH | rain 1hr in | rain 24hr in | rain mn in | humidity % | barometer mb |
| 20260506051002 | 51 | 128 | 0.0 | 0.0 | 0.00 | 0.04 | 0.01 | 92 | 1009.8 |
| 20260506050501 | 51 | 128 | 0.0 | 0.0 | 0.00 | 0.04 | 0.01 | 92 | 1009.6 |
| 20260506045001 | 51 | 128 | 0.0 | 0.0 | 0.00 | 0.12 | 0.01 | 92 | 1009.6 |
| 20260506044502 | 51 | 127 | 0.0 | 0.0 | 0.00 | 0.12 | 0.01 | 92 | 1009.6 |
| 20260506044001 | 51 | 127 | 0.0 | 0.0 | 0.00 | 0.12 | 0.01 | 92 | 1009.4 |
| 20260506043500 | 51 | 128 | 0.0 | 0.0 | 0.00 | 0.12 | 0.01 | 92 | 1009.4 |
| 20260506042502 | 51 | 128 | 0.0 | 0.0 | 0.00 | 0.12 | 0.01 | 92 | 1009.4 |
| 20260506042001 | 51 | 128 | 0.0 | 0.0 | 0.00 | 0.12 | 0.01 | 92 | 1009.4 |
| 20260506041502 | 51 | 128 | 0.0 | 0.0 | 0.00 | 0.12 | 0.01 | 92 | 1009.4 |
| 20260506041002 | 51 | 128 | 0.0 | 0.0 | 0.00 | 0.12 | 0.01 | 92 | 1009.3 |
| 20260506040501 | 51 | 128 | 0.0 | 0.0 | 0.00 | 0.12 | 0.01 | 91 | 1009.3 |
| 20260506040006 | 51 | 128 | 0.0 | 0.0 | 0.00 | 0.12 | 0.01 | 91 | 1009.4 |
| 20260506035500 | 51 | 127 | 0.0 | 0.0 | 0.00 | 0.34 | 0.01 | 91 | 1009.2 |
| 20260506035001 | 51 | 128 | 0.0 | 0.0 | 0.00 | 0.34 | 0.01 | 91 | 1009.1 |
| 20260506034502 | 51 | 128 | 0.0 | 0.0 | 0.00 | 0.34 | 0.01 | 91 | 1009.1 |
| 20260506034001 | 51 | 128 | 0.0 | 0.0 | 0.00 | 0.34 | 0.01 | 91 | 1009.1 |
| 20260506033501 | 51 | 128 | 0.0 | 0.0 | 0.00 | 0.34 | 0.01 | 91 | 1009.1 |
| 20260506032502 | 51 | 127 | 0.0 | 0.0 | 0.00 | 0.34 | 0.01 | 91 | 1008.5 |
| 20260506032001 | 51 | 128 | 0.0 | 0.0 | 0.00 | 0.34 | 0.01 | 91 | 1008.3 |
| 20260506031502 | 51 | 128 | 0.0 | 0.0 | 0.00 | 0.34 | 0.01 | 91 | 1008.4 |
| 20260506031002 | 52 | 127 | 0.0 | 0.0 | 0.00 | 0.34 | 0.01 | 90 | 1008.5 |
| 20260506030501 | 52 | 128 | 0.0 | 0.0 | 0.00 | 0.34 | 0.01 | 90 | 1008.7 |
| 20260506030005 | 52 | 128 | 0.0 | 0.0 | 0.00 | 0.34 | 0.01 | 90 | 1008.5 |
| 20260506025501 | 52 | 128 | 0.0 | 0.0 | 0.00 | 0.52 | 0.01 | 90 | 1008.6 |
| 20260506025002 | 52 | 128 | 0.0 | 0.0 | 0.00 | 0.52 | 0.01 | 90 | 1008.7 |
| 20260506024502 | 52 | 128 | 0.0 | 0.0 | 0.00 | 0.52 | 0.01 | 90 | 1008.5 |
| 20260506024002 | 52 | 128 | 0.0 | 0.0 | 0.00 | 0.52 | 0.01 | 90 | 1008.4 |
| 20260506023502 | 52 | 128 | 0.0 | 0.0 | 0.00 | 0.52 | 0.01 | 90 | 1008.3 |
| 20260506023002 | 52 | 128 | 0.0 | 0.0 | 0.00 | 0.52 | 0.01 | 89 | 1008.2 |
| 20260506022501 | 52 | 128 | 0.0 | 0.0 | 0.00 | 0.52 | 0.01 | 89 | 1008.2 |
| 20260506022001 | 52 | 128 | 0.0 | 0.0 | 0.00 | 0.52 | 0.01 | 89 | 1008.0 |
| 20260506021501 | 52 | 128 | 0.0 | 0.0 | 0.00 | 0.52 | 0.01 | 89 | 1007.9 |
| 20260506021001 | 52 | 128 | 0.0 | 0.0 | 0.00 | 0.52 | 0.01 | 89 | 1007.9 |
| 20260506020502 | 52 | 128 | 0.0 | 0.0 | 0.00 | 0.52 | 0.01 | 89 | 1007.8 |
| 20260506015000 | 53 | 127 | 0.0 | 0.0 | 0.00 | 0.54 | 0.01 | 88 | 1007.7 |
| 20260506014000 | 53 | 127 | 0.0 | 0.0 | 0.00 | 0.54 | 0.01 | 87 | 1007.5 |
| 20260506013500 | 53 | 127 | 0.0 | 0.0 | 0.00 | 0.54 | 0.01 | 87 | 1007.7 |
| 20260506013001 | 53 | 127 | 0.0 | 0.0 | 0.00 | 0.54 | 0.01 | 87 | 1007.6 |
| 20260506012501 | 53 | 128 | 0.0 | 0.0 | 0.00 | 0.54 | 0.01 | 88 | 1007.5 |
| 20260506012000 | 53 | 128 | 0.0 | 0.0 | 0.00 | 0.54 | 0.01 | 87 | 1007.4 |
| 20260506010959 | 53 | 128 | 0.0 | 0.0 | 0.00 | 0.54 | 0.01 | 88 | 1007.3 |
| 20260506010500 | 53 | 128 | 0.0 | 0.0 | 0.00 | 0.54 | 0.01 | 88 | 1007.4 |
| 20260506010004 | 53 | 128 | 0.0 | 0.0 | 0.00 | 0.54 | 0.01 | 87 | 1007.5 |
| 20260506005500 | 53 | 128 | 0.0 | 0.0 | 0.00 | 0.66 | 0.01 | 88 | 1007.5 |
| 20260506005000 | 53 | 128 | 0.0 | 1.0 | 0.00 | 0.66 | 0.01 | 87 | 1007.4 |
| 20260506004501 | 53 | 127 | 0.0 | 1.0 | 0.00 | 0.66 | 0.01 | 87 | 1007.3 |
| 20260506004000 | 53 | 129 | 0.0 | 0.0 | 0.00 | 0.66 | 0.01 | 88 | 1007.3 |
| 20260506003500 | 52 | 129 | 0.0 | 0.0 | 0.00 | 0.66 | 0.01 | 88 | 1007.5 |
| 20260506003003 | 52 | 129 | 0.0 | 1.0 | 0.00 | 0.66 | 0.01 | 88 | 1007.5 |
| 20260506001501 | 52 | 129 | 0.0 | 1.0 | 0.00 | 0.66 | 0.01 | 88 | 1007.3 |
| 20260506001000 | 52 | 127 | 0.0 | 0.0 | 0.00 | 0.66 | 0.01 | 89 | 1007.2 |
| 20260506000500 | 52 | 127 | 0.0 | 0.0 | 0.00 | 0.66 | 0.01 | 88 | 1007.2 |
| 20260506000005 | 52 | 127 | 0.0 | 0.0 | 0.00 | 0.66 | 0.01 | 88 | 1007.1 |
| 20260505234503 | 53 | 127 | 0.0 | 0.0 | 0.00 | 0.77 | 0.01 | 87 | 1007.1 |
| 20260505234000 | 53 | 127 | 0.0 | 0.0 | 0.00 | 0.77 | 0.01 | 87 | 1007.0 |
| 20260505233502 | 53 | 127 | 0.0 | 1.0 | 0.00 | 0.77 | 0.01 | 87 | 1007.2 |
| 20260505233001 | 53 | 236 | 0.0 | 1.0 | 0.00 | 0.77 | 0.01 | 87 | 1007.3 |
| 20260505232500 | 53 | 236 | 0.0 | 0.0 | 0.00 | 0.77 | 0.01 | 87 | 1007.2 |
| 20260505231501 | 54 | 237 | 0.0 | 1.0 | 0.00 | 0.77 | 0.01 | 86 | 1007.2 |
| 20260505231000 | 54 | 238 | 0.0 | 1.0 | 0.00 | 0.77 | 0.01 | 86 | 1007.3 |
| 20260505230459 | 54 | 237 | 0.0 | 0.0 | 0.00 | 0.77 | 0.01 | 86 | 1007.3 |
| 20260505230005 | 54 | 237 | 0.0 | 1.0 | 0.00 | 0.77 | 0.01 | 86 | 1007.3 |
| 20260505225459 | 54 | 238 | 0.0 | 1.0 | 0.00 | 0.83 | 0.01 | 85 | 1007.2 |
| 20260505225000 | 54 | 237 | 0.0 | 1.0 | 0.00 | 0.83 | 0.01 | 85 | 1007.3 |
| 20260505224501 | 54 | 238 | 0.0 | 0.0 | 0.00 | 0.83 | 0.01 | 86 | 1007.2 |
| 20260505223001 | 54 | 242 | 0.0 | 1.0 | 0.00 | 0.83 | 0.01 | 86 | 1007.2 |
| 20260505222500 | 54 | 242 | 0.0 | 1.0 | 0.00 | 0.83 | 0.01 | 86 | 1007.3 |
| 20260505222000 | 54 | 233 | 0.0 | 0.0 | 0.00 | 0.83 | 0.01 | 85 | 1007.3 |
| 20260505221501 | 54 | 234 | 0.0 | 0.0 | 0.00 | 0.83 | 0.01 | 86 | 1007.3 |
| 20260505221000 | 53 | 234 | 0.0 | 1.0 | 0.00 | 0.83 | 0.01 | 86 | 1007.5 |
| 20260505220500 | 53 | 234 | 0.0 | 1.0 | 0.00 | 0.83 | 0.01 | 86 | 1007.3 |
| 20260505220004 | 53 | 216 | 0.0 | 1.0 | 0.00 | 0.83 | 0.01 | 87 | 1007.4 |
| 20260505215000 | 53 | 217 | 0.0 | 1.0 | 0.00 | 0.84 | 0.01 | 87 | 1007.6 |
| 20260505214501 | 53 | 216 | 0.0 | 1.0 | 0.00 | 0.84 | 0.01 | 87 | 1007.6 |
| 20260505214000 | 53 | 259 | 0.0 | 1.0 | 0.00 | 0.84 | 0.01 | 88 | 1007.8 |
| 20260505213500 | 52 | 232 | 0.0 | 1.0 | 0.00 | 0.84 | 0.01 | 88 | 1007.6 |
| 20260505213001 | 52 | 176 | 0.0 | 1.0 | 0.00 | 0.84 | 0.01 | 88 | 1007.7 |
| 20260505212500 | 52 | 224 | 0.0 | 1.0 | 0.00 | 0.84 | 0.01 | 88 | 1007.8 |
| 20260505212000 | 52 | 219 | 0.0 | 1.0 | 0.00 | 0.84 | 0.01 | 87 | 1007.7 |
| 20260505211501 | 52 | 201 | 0.0 | 1.0 | 0.00 | 0.84 | 0.01 | 87 | 1007.7 |
| 20260505210500 | 52 | 243 | 0.0 | 1.0 | 0.00 | 0.84 | 0.01 | 88 | 1007.6 |
| 20260505210005 | 52 | 242 | 0.0 | 1.0 | 0.00 | 0.84 | 0.01 | 89 | 1007.6 |
| 20260505205500 | 52 | 250 | 0.0 | 1.0 | 0.00 | 0.90 | 0.01 | 88 | 1007.5 |
| 20260505204959 | 51 | 277 | 0.0 | 1.0 | 0.00 | 0.90 | 0.01 | 89 | 1007.5 |
| 20260505204501 | 51 | 225 | 0.0 | 1.0 | 0.00 | 0.90 | 0.01 | 89 | 1007.5 |
| 20260505203500 | 51 | 225 | 0.0 | 0.0 | 0.00 | 0.90 | 0.01 | 90 | 1007.5 |
| 20260505203003 | 51 | 226 | 0.0 | 0.0 | 0.00 | 0.90 | 0.01 | 90 | 1007.6 |
| 20260505202500 | 51 | 232 | 0.0 | 1.0 | 0.00 | 0.90 | 0.01 | 90 | 1007.4 |
| 20260505202000 | 51 | 232 | 0.0 | 1.0 | 0.00 | 0.90 | 0.01 | 90 | 1007.5 |
| 20260505201002 | 51 | 231 | 0.0 | 0.0 | 0.00 | 0.90 | 0.01 | 89 | 1007.4 |
| 20260505200500 | 51 | 231 | 0.0 | 1.0 | 0.00 | 0.90 | 0.01 | 89 | 1007.4 |
| 20260505200006 | 51 | 232 | 0.0 | 1.0 | 0.00 | 0.90 | 0.01 | 89 | 1007.5 |
| 20260505195500 | 51 | 235 | 0.0 | 2.0 | 0.00 | 0.93 | 0.01 | 89 | 1007.5 |
| 20260505194501 | 51 | 234 | 0.0 | 1.0 | 0.00 | 0.93 | 0.01 | 89 | 1007.6 |
| 20260505194000 | 51 | 234 | 0.0 | 1.0 | 0.00 | 0.93 | 0.01 | 88 | 1007.5 |
| 20260505192500 | 52 | 198 | 0.0 | 0.0 | 0.00 | 0.93 | 0.01 | 89 | 1007.5 |
| 20260505192000 | 51 | 198 | 0.0 | 0.0 | 0.00 | 0.93 | 0.01 | 88 | 1007.5 |
| 20260505191501 | 51 | 198 | 0.0 | 0.0 | 0.00 | 0.93 | 0.01 | 88 | 1007.3 |
| 20260505191000 | 51 | 267 | 0.0 | 0.0 | 0.00 | 0.93 | 0.01 | 88 | 1007.3 |
| 20260505190500 | 51 | 267 | 0.0 | 1.0 | 0.00 | 0.93 | 0.01 | 88 | 1007.3 |
| 20260505190006 | 51 | 271 | 0.0 | 2.0 | 0.00 | 0.93 | 0.01 | 88 | 1007.3 |
| 20260505185500 | 52 | 271 | 0.0 | 2.0 | 0.00 | 0.93 | 0.01 | 88 | 1007.3 |
| 20260505185000 | 52 | 240 | 0.0 | 0.0 | 0.00 | 0.93 | 0.01 | 88 | 1007.4 |
| 20260505184500 | 51 | 240 | 0.0 | 0.0 | 0.00 | 0.93 | 0.01 | 89 | 1007.2 |
| 20260505184000 | 51 | 229 | 0.0 | 0.0 | 0.00 | 0.93 | 0.01 | 90 | 1007.3 |
| 20260505183501 | 51 | 229 | 0.0 | 0.0 | 0.00 | 0.93 | 0.01 | 90 | 1007.2 |
| 20260505183001 | 51 | 231 | 0.0 | 0.0 | 0.00 | 0.93 | 0.01 | 89 | 1007.3 |
| 20260505182000 | 51 | 229 | 0.0 | 1.0 | 0.00 | 0.93 | 0.01 | 89 | 1007.2 |
| 20260505181500 | 51 | 230 | 0.0 | 1.0 | 0.00 | 0.93 | 0.01 | 89 | 1007.2 |
| 20260505181001 | 51 | 231 | 0.0 | 1.0 | 0.00 | 0.93 | 0.01 | 89 | 1007.2 |
| 20260505180500 | 51 | 248 | 0.0 | 1.0 | 0.00 | 0.93 | 0.01 | 90 | 1007.2 |
| 20260505175500 | 50 | 248 | 0.0 | 1.0 | 0.00 | 0.93 | 0.01 | 89 | 1007.0 |
| 20260505175000 | 50 | 248 | 0.0 | 1.0 | 0.00 | 0.93 | 0.01 | 90 | 1007.1 |
| 20260505174501 | 50 | 249 | 0.0 | 1.0 | 0.00 | 0.93 | 0.01 | 90 | 1007.0 |
| 20260505174010 | 50 | 249 | 0.0 | 1.0 | 0.00 | 0.93 | 0.01 | 90 | 1007.1 |
| 20260505173500 | 50 | 249 | 0.0 | 1.0 | 0.00 | 0.93 | 0.01 | 90 | 1006.9 |
| 20260505173002 | 50 | 249 | 0.0 | 1.0 | 0.00 | 0.93 | 0.01 | 89 | 1007.0 |
| 20260505172000 | 50 | 106 | 0.0 | 2.0 | 0.00 | 0.93 | 0.01 | 90 | 1006.9 |
| 20260505171000 | 50 | 221 | 0.0 | 1.0 | 0.00 | 0.93 | 0.01 | 90 | 1007.0 |
| 20260505170500 | 50 | 219 | 0.0 | 0.0 | 0.00 | 0.93 | 0.01 | 91 | 1007.0 |
| 20260505170004 | 50 | 219 | 0.0 | 0.0 | 0.00 | 0.93 | 0.01 | 90 | 1006.9 |
| 20260505165501 | 50 | 219 | 0.0 | 0.0 | 0.00 | 0.93 | 0.01 | 91 | 1006.9 |
| 20260505165000 | 50 | 220 | 0.0 | 1.0 | 0.00 | 0.93 | 0.01 | 90 | 1006.8 |
| 20260505164501 | 50 | 219 | 0.0 | 1.0 | 0.00 | 0.93 | 0.01 | 91 | 1006.8 |
| 20260505164000 | 50 | 219 | 0.0 | 1.0 | 0.00 | 0.93 | 0.01 | 91 | 1006.8 |
| 20260505162500 | 50 | 218 | 0.0 | 0.0 | 0.00 | 0.93 | 0.01 | 94 | 1006.8 |
| 20260505161959 | 50 | 218 | 0.0 | 0.0 | 0.00 | 0.93 | 0.01 | 94 | 1006.7 |
| 20260505161500 | 49 | 218 | 0.0 | 0.0 | 0.00 | 0.93 | 0.01 | 94 | 1006.7 |
| 20260505161000 | 49 | 218 | 0.0 | 0.0 | 0.00 | 0.93 | 0.01 | 94 | 1006.6 |
| 20260505160500 | 48 | 219 | 0.0 | 0.0 | 0.00 | 0.93 | 0.01 | 94 | 1006.7 |
| 20260505153001 | 48 | 110 | 0.0 | 0.0 | 0.00 | 0.93 | 0.01 | 95 | 1006.7 |
| 20260505152500 | 48 | 110 | 0.0 | 0.0 | 0.00 | 0.93 | 0.01 | 95 | 1006.6 |
| 20260505152000 | 48 | 110 | 0.0 | 0.0 | 0.00 | 0.93 | 0.01 | 95 | 1006.6 |
| 20260505151501 | 47 | 110 | 0.0 | 0.0 | 0.00 | 0.93 | 0.01 | 95 | 1006.4 |
| 20260505151000 | 47 | 110 | 0.0 | 0.0 | 0.00 | 0.93 | 0.01 | 95 | 1006.5 |
| 20260505150500 | 47 | 110 | 0.0 | 0.0 | 0.00 | 0.93 | 0.01 | 95 | 1006.3 |
| 20260505125000 | 45 | 110 | 0.0 | 0.0 | 0.00 | 0.93 | 0.01 | 95 | 1005.6 |
| 20260505124505 | 45 | 110 | 0.0 | 0.0 | 0.00 | 0.93 | 0.01 | 95 | 1005.5 |
| 20260505124000 | 45 | 110 | 0.0 | 0.0 | 0.00 | 0.93 | 0.01 | 95 | 1005.5 |
| 20260505123500 | 45 | 110 | 0.0 | 0.0 | 0.00 | 0.93 | 0.01 | 95 | 1005.5 |
| 20260505123001 | 45 | 110 | 0.0 | 0.0 | 0.00 | 0.93 | 0.01 | 95 | 1005.5 |
| 20260505122500 | 45 | 110 | 0.0 | 0.0 | 0.00 | 0.93 | 0.01 | 95 | 1005.5 |
| 20260505122000 | 45 | 110 | 0.0 | 0.0 | 0.00 | 0.93 | 0.01 | 95 | 1005.6 |
| 20260505121000 | 45 | 110 | 0.0 | 0.0 | 0.00 | 0.93 | 0.01 | 95 | 1005.5 |
| 20260505120500 | 45 | 110 | 0.0 | 0.0 | 0.00 | 0.93 | 0.01 | 95 | 1005.3 |
| 20260505120004 | 45 | 110 | 0.0 | 0.0 | 0.00 | 0.93 | 0.01 | 95 | 1005.5 |
| 20260505115500 | 45 | 110 | 0.0 | 0.0 | 0.00 | 0.93 | 0.01 | 95 | 1005.5 |
| 20260505115000 | 45 | 110 | 0.0 | 0.0 | 0.00 | 0.93 | 0.01 | 95 | 1005.5 |
| 20260505114501 | 45 | 110 | 0.0 | 0.0 | 0.00 | 0.93 | 0.01 | 95 | 1005.5 |
| 20260505114000 | 45 | 110 | 0.0 | 0.0 | 0.00 | 0.93 | 0.01 | 95 | 1005.5 |
| 20260505113459 | 45 | 110 | 0.0 | 0.0 | 0.00 | 0.93 | 0.01 | 95 | 1005.6 |
| 20260505113001 | 45 | 110 | 0.0 | 0.0 | 0.00 | 0.93 | 0.01 | 95 | 1005.5 |
| 20260505112500 | 45 | 110 | 0.0 | 0.0 | 0.00 | 0.93 | 0.01 | 95 | 1005.5 |
| 20260505112000 | 45 | 110 | 0.0 | 0.0 | 0.00 | 0.93 | 0.01 | 95 | 1005.6 |
| 20260505111500 | 45 | 110 | 0.0 | 0.0 | 0.00 | 0.93 | 0.01 | 95 | 1005.6 |
| 20260505111000 | 45 | 110 | 0.0 | 0.0 | 0.00 | 0.93 | 0.01 | 95 | 1005.7 |
| 20260505102000 | 46 | 110 | 0.0 | 0.0 | 0.00 | 0.93 | 0.01 | 95 | 1005.6 |
| 20260505101000 | 46 | 110 | 0.0 | 0.0 | 0.00 | 0.93 | 0.01 | 95 | 1005.6 |
| 20260505100501 | 46 | 110 | 0.0 | 0.0 | 0.00 | 0.93 | 0.01 | 95 | 1005.6 |
| 20260505095459 | 46 | 111 | 0.0 | 0.0 | 0.00 | 0.93 | 0.01 | 95 | 1005.6 |
| 20260505095000 | 46 | 110 | 0.0 | 0.0 | 0.00 | 0.93 | 0.01 | 95 | 1005.6 |
| 20260505094500 | 46 | 110 | 0.0 | 0.0 | 0.00 | 0.93 | 0.01 | 95 | 1005.7 |
| 20260505093459 | 46 | 110 | 0.0 | 0.0 | 0.00 | 0.93 | 0.01 | 95 | 1005.8 |
| 20260505093000 | 46 | 110 | 0.0 | 0.0 | 0.00 | 0.93 | 0.01 | 95 | 1005.9 |
| 20260505092459 | 46 | 110 | 0.0 | 0.0 | 0.00 | 0.93 | 0.01 | 95 | 1006.0 |
| 20260505091959 | 46 | 110 | 0.0 | 0.0 | 0.00 | 0.93 | 0.01 | 95 | 1006.1 |
| 20260505090002 | 46 | 110 | 0.0 | 0.0 | 0.00 | 0.93 | 0.01 | 95 | 1006.0 |
| 20260505085459 | 46 | 110 | 0.0 | 0.0 | 0.00 | 0.93 | 0.01 | 95 | 1006.0 |
| 20260505084959 | 46 | 110 | 0.0 | 0.0 | 0.00 | 0.93 | 0.01 | 95 | 1006.1 |
| 20260505083959 | 46 | 110 | 0.0 | 0.0 | 0.00 | 0.93 | 0.01 | 95 | 1006.6 |
| 20260505083459 | 46 | 110 | 0.0 | 0.0 | 0.00 | 0.93 | 0.01 | 95 | 1006.6 |
| 20260505082459 | 45 | 110 | 0.0 | 0.0 | 0.00 | 0.93 | 0.01 | 94 | 1006.7 |
| 20260505081958 | 45 | 110 | 0.0 | 0.0 | 0.00 | 0.93 | 0.01 | 94 | 1006.6 |
| 20260505081500 | 45 | 110 | 0.0 | 0.0 | 0.01 | 0.93 | 0.01 | 94 | 1006.6 |
| 20260505080959 | 46 | 110 | 0.0 | 0.0 | 0.01 | 0.93 | 0.01 | 94 | 1006.4 |
| 20260505075501 | 45 | 110 | 0.0 | 0.0 | 0.03 | 0.93 | 0.01 | 94 | 1006.6 |
| 20260505075001 | 45 | 110 | 0.0 | 0.0 | 0.03 | 0.93 | 0.01 | 94 | 1006.6 |
| 20260505074502 | 45 | 110 | 0.0 | 0.0 | 0.03 | 0.93 | 0.01 | 94 | 1006.6 |
| 20260505074001 | 45 | 110 | 0.0 | 0.0 | 0.03 | 0.93 | 0.01 | 94 | 1006.4 |
| 20260505073005 | 45 | 110 | 0.0 | 0.0 | 0.03 | 0.93 | 0.01 | 94 | 1006.3 |
| 20260505072001 | 45 | 110 | 0.0 | 0.0 | 0.04 | 0.93 | 0.01 | 94 | 1006.3 |
| 20260505071001 | 45 | 110 | 0.0 | 0.0 | 0.03 | 0.92 | 0.00 | 94 | 1006.5 |
| 20260505070005 | 45 | 111 | 0.0 | 0.0 | 0.03 | 0.92 | 0.00 | 94 | 1006.5 |
| 20260505065000 | 45 | 110 | 0.0 | 0.0 | 0.01 | 0.90 | 0.90 | 94 | 1006.7 |
| 20260505064502 | 45 | 110 | 0.0 | 0.0 | 0.01 | 0.90 | 0.90 | 94 | 1007.0 |
| 20260505063002 | 45 | 110 | 0.0 | 0.0 | 0.01 | 0.90 | 0.90 | 94 | 1006.3 |
| 20260505062501 | 45 | 110 | 0.0 | 0.0 | 0.00 | 0.89 | 0.89 | 94 | 1006.3 |
| 20260505062001 | 45 | 110 | 0.0 | 0.0 | 0.00 | 0.89 | 0.89 | 94 | 1006.4 |
| 20260505061502 | 45 | 110 | 0.0 | 0.0 | 0.00 | 0.89 | 0.89 | 94 | 1006.3 |
| 20260505061001 | 45 | 110 | 0.0 | 0.0 | 0.00 | 0.89 | 0.89 | 94 | 1006.7 |
| 20260505060502 | 45 | 110 | 0.0 | 0.0 | 0.00 | 0.89 | 0.89 | 94 | 1007.1 |
| 20260505060005 | 45 | 110 | 0.0 | 0.0 | 0.00 | 0.89 | 0.89 | 94 | 1007.1 |
| 20260505055504 | 45 | 110 | 0.0 | 0.0 | 0.00 | 0.89 | 0.89 | 94 | 1007.0 |
| 20260505055001 | 45 | 110 | 0.0 | 0.0 | 0.01 | 0.89 | 0.89 | 94 | 1006.9 |